Check out our new BloomSky Weather System.

Active alerts


No alerts


Thunder radar  blitzortung!


Rain radar more information rain snow radar


Visit our other weather sites:

Template documentation
and downloads

And another site



Weather Underground History page Text

Daily Summary for July 13, 2017 Units:  English    Metric   Both
« Previous Day
Next Day »
Daily Weekly Monthly Yearly Custom
  High: Low: Average:
Temperature: TemperatureF °F 75.2 °F 83.4 °F
Dew Point: DewpointF °F 74.1 °F 76.5 °F
Humidity: Humidity % 59 % 81 %
Wind Speed: WindSpeedMPH mph 0.0 mph 1 mph
Wind Gust: WindSpeedGustMPH mph - -
Wind:- - SSE
Pressure: PressureIn in 30.02 in -
Precipitation: 0.00 in    
Historical Graphs
 
 
Tabular Data for July 13, 2017
Time Temperature Dew Point Pressure Wind Wind Speed Wind Gust Humidity Rainfall Rate (Hourly)
TemperatureF °F DewpointF °F PressureIn in Calm     Humidity % HourlyPrecipIn in
00:00 80.4 °F 76.5 °F 30.04 in Calm   2.0 mph 88 % 0.00 in
00:05 80.4 °F 76.8 °F 30.04 in Calm   2.0 mph 89 % 0.00 in
00:10 80.2 °F 76.6 °F 30.04 in Calm   2.0 mph 89 % 0.00 in
00:15 79.9 °F 76.3 °F 30.04 in Calm   1.0 mph 89 % 0.00 in
00:20 79.7 °F 76.5 °F 30.04 in SSW 1.0 mph 1.0 mph 90 % 0.00 in
00:25 79.5 °F 76.3 °F 30.04 in Calm   2.0 mph 90 % 0.00 in
00:30 79.5 °F 76.3 °F 30.04 in Calm   2.0 mph 90 % 0.00 in
00:35 79.3 °F 76.1 °F 30.04 in Calm   2.0 mph 90 % 0.00 in
00:40 79.0 °F 75.7 °F 30.04 in Calm     90 % 0.00 in
00:45 79.0 °F 76.1 °F 30.04 in Calm     91 % 0.00 in
00:50 78.8 °F 76.3 °F 30.04 in Calm     92 % 0.00 in
00:55 78.6 °F 76.1 °F 30.04 in Calm     92 % 0.00 in
01:00 78.6 °F 76.5 °F 30.04 in Calm     93 % 0.00 in
01:05 78.4 °F 76.3 °F 30.04 in Calm     93 % 0.00 in
01:10 78.4 °F 76.3 °F 30.04 in Calm     93 % 0.00 in
01:15 78.3 °F 76.1 °F 30.04 in Calm     93 % 0.00 in
01:20 78.1 °F 75.9 °F 30.04 in Calm     93 % 0.00 in
01:25 77.9 °F 75.7 °F 30.04 in Calm     93 % 0.00 in
01:30 77.7 °F 75.9 °F 30.04 in Calm     94 % 0.00 in
01:36 77.7 °F 75.9 °F 30.04 in Calm     94 % 0.00 in
01:41 77.7 °F 75.9 °F 30.04 in Calm     94 % 0.00 in
01:46 77.5 °F 75.7 °F 30.04 in Calm     94 % 0.00 in
01:51 77.4 °F 75.6 °F 30.04 in Calm     94 % 0.00 in
01:56 77.4 °F 75.7 °F 30.04 in Calm     95 % 0.00 in
02:01 77.2 °F 75.6 °F 30.04 in Calm     95 % 0.00 in
02:02 77.2 °F 75.6 °F 30.04 in Calm     95 % 0.00 in
02:07 77.2 °F 75.6 °F 30.04 in Calm     95 % 0.00 in
02:12 77.2 °F 75.6 °F 30.04 in Calm     95 % 0.00 in
02:17 77.2 °F 75.6 °F 30.04 in Calm     95 % 0.00 in
02:22 77.0 °F 75.4 °F 30.04 in Calm     95 % 0.00 in
02:27 76.8 °F 75.2 °F 30.04 in Calm     95 % 0.00 in
02:32 76.6 °F 75.0 °F 30.04 in Calm     95 % 0.00 in
02:37 76.5 °F 75.2 °F 30.05 in Calm     96 % 0.00 in
02:42 76.6 °F 75.4 °F 30.04 in Calm     96 % 0.00 in
02:47 76.5 °F 75.2 °F 30.04 in Calm     96 % 0.00 in
02:52 76.6 °F 75.4 °F 30.04 in Calm     96 % 0.00 in
02:57 76.5 °F 75.2 °F 30.04 in Calm     96 % 0.00 in
03:02 76.3 °F 75.0 °F 30.04 in Calm     96 % 0.00 in
03:07 76.5 °F 75.6 °F 30.04 in Calm     97 % 0.00 in
03:12 76.5 °F 75.6 °F 30.04 in Calm     97 % 0.00 in
03:17 76.3 °F 75.4 °F 30.05 in Calm     97 % 0.00 in
03:22 76.3 °F 75.4 °F 30.04 in Calm     97 % 0.00 in
03:27 76.1 °F 75.2 °F 30.04 in Calm     97 % 0.00 in
03:32 75.9 °F 74.7 °F 30.04 in Calm     96 % 0.00 in
03:37 75.9 °F 75.0 °F 30.05 in Calm     97 % 0.00 in
03:42 75.9 °F 75.0 °F 30.05 in Calm     97 % 0.00 in
03:47 75.9 °F 75.0 °F 30.05 in Calm     97 % 0.00 in
03:52 75.9 °F 75.0 °F 30.05 in Calm     97 % 0.00 in
03:57 75.7 °F 74.8 °F 30.05 in Calm     97 % 0.00 in
04:02 75.7 °F 74.8 °F 30.05 in Calm     97 % 0.00 in
04:07 75.7 °F 74.8 °F 30.05 in Calm     97 % 0.00 in
04:12 75.9 °F 75.0 °F 30.05 in Calm     97 % 0.00 in
04:17 75.9 °F 75.0 °F 30.05 in Calm     97 % 0.00 in
04:23 75.7 °F 74.8 °F 30.05 in Calm     97 % 0.00 in
04:27 75.7 °F 74.8 °F 30.06 in Calm     97 % 0.00 in
04:33 75.7 °F 74.8 °F 30.05 in Calm     97 % 0.00 in
04:38 75.7 °F 74.8 °F 30.06 in Calm     97 % 0.00 in
04:43 75.7 °F 75.2 °F 30.06 in Calm     98 % 0.00 in
04:47 75.7 °F 75.2 °F 30.06 in Calm     98 % 0.00 in
04:52 75.7 °F 75.2 °F 30.06 in Calm     98 % 0.00 in
04:57 75.7 °F 75.2 °F 30.06 in Calm     98 % 0.00 in
05:03 75.7 °F 75.2 °F 30.06 in Calm     98 % 0.00 in
05:08 75.6 °F 75.0 °F 30.06 in Calm     98 % 0.00 in
05:13 75.6 °F 75.0 °F 30.06 in Calm     98 % 0.00 in
05:18 75.6 °F 75.0 °F 30.06 in Calm     98 % 0.00 in
05:23 75.6 °F 75.0 °F 30.06 in Calm     98 % 0.00 in
05:28 75.6 °F 75.0 °F 30.06 in Calm     98 % 0.00 in
05:33 75.6 °F 75.0 °F 30.06 in Calm     98 % 0.00 in
05:38 75.6 °F 75.0 °F 30.06 in Calm     98 % 0.00 in
05:43 75.6 °F 75.0 °F 30.06 in Calm     98 % 0.00 in
05:48 75.6 °F 75.0 °F 30.07 in Calm     98 % 0.00 in
05:53 75.6 °F 75.0 °F 30.06 in Calm     98 % 0.00 in
05:58 75.4 °F 74.8 °F 30.07 in Calm     98 % 0.00 in
06:03 75.2 °F 74.7 °F 30.07 in Calm     98 % 0.00 in
06:08 75.4 °F 74.8 °F 30.07 in Calm     98 % 0.00 in
06:13 75.4 °F 74.8 °F 30.07 in Calm     98 % 0.00 in
06:18 75.6 °F 75.0 °F 30.07 in Calm     98 % 0.00 in
06:23 75.6 °F 75.0 °F 30.07 in Calm     98 % 0.00 in
06:28 75.6 °F 75.0 °F 30.07 in Calm     98 % 0.00 in
06:33 75.6 °F 75.0 °F 30.07 in Calm     98 % 0.00 in
06:38 75.6 °F 75.0 °F 30.07 in Calm     98 % 0.00 in
06:43 75.7 °F 75.2 °F 30.08 in Calm     98 % 0.00 in
06:48 75.7 °F 75.2 °F 30.08 in Calm   1.0 mph 98 % 0.00 in
06:53 75.7 °F 75.2 °F 30.08 in Calm   1.0 mph 98 % 0.00 in
06:58 75.9 °F 75.4 °F 30.08 in Calm   1.0 mph 98 % 0.00 in
07:03 75.9 °F 75.4 °F 30.08 in Calm     98 % 0.00 in
07:08 76.3 °F 75.7 °F 30.08 in Calm     98 % 0.00 in
07:09 76.3 °F 75.7 °F 30.09 in Calm     98 % 0.00 in
07:14 76.6 °F 76.3 °F 30.09 in Calm     99 % 0.00 in
07:19 77.2 °F 76.8 °F 30.09 in Calm     99 % 0.00 in
07:24 77.5 °F 77.0 °F 30.09 in Calm     98 % 0.00 in
07:29 78.1 °F 77.5 °F 30.09 in West 1.0 mph 1.0 mph 98 % 0.00 in
07:34 78.3 °F 77.7 °F 30.09 in Calm   1.0 mph 98 % 0.00 in
07:39 79.0 °F 78.4 °F 30.09 in ENE 1.0 mph 2.0 mph 98 % 0.00 in
07:44 79.2 °F 78.3 °F 30.09 in Calm   2.0 mph 97 % 0.00 in
07:49 79.5 °F 78.6 °F 30.09 in Calm   2.0 mph 97 % 0.00 in
07:54 80.1 °F 79.2 °F 30.10 in Calm   2.0 mph 97 % 0.00 in
07:59 80.4 °F 78.8 °F 30.10 in Calm   2.0 mph 95 % 0.00 in
08:04 81.1 °F 79.9 °F 30.10 in Calm   2.0 mph 96 % 0.00 in
08:09 81.7 °F 79.7 °F 30.10 in Calm   2.0 mph 94 % 0.00 in
08:14 82.0 °F 79.9 °F 30.10 in Calm   2.0 mph 93 % 0.00 in
08:19 82.6 °F 80.1 °F 30.10 in Calm   1.0 mph 92 % 0.00 in
08:24 82.9 °F 80.1 °F 30.10 in Calm   2.0 mph 91 % 0.00 in
08:29 83.5 °F 79.9 °F 30.10 in NW 1.0 mph 2.0 mph 89 % 0.00 in
08:34 84.0 °F 80.4 °F 30.10 in Calm   2.0 mph 89 % 0.00 in
08:39 84.7 °F 80.4 °F 30.10 in ESE 1.0 mph 2.0 mph 87 % 0.00 in
08:44 85.1 °F 80.1 °F 30.10 in SE 1.0 mph 3.0 mph 85 % 0.00 in
08:49 85.3 °F 80.2 °F 30.10 in Calm   3.0 mph 85 % 0.00 in
08:54 85.6 °F 79.9 °F 30.11 in Calm   3.0 mph 83 % 0.00 in
08:59 86.4 °F 80.2 °F 30.11 in ESE 1.0 mph 3.0 mph 82 % 0.00 in
09:04 86.7 °F 80.2 °F 30.11 in Calm   3.0 mph 81 % 0.00 in
09:09 86.9 °F 79.5 °F 30.11 in Calm   3.0 mph 79 % 0.00 in
09:14 87.4 °F 80.1 °F 30.11 in Calm   2.0 mph 79 % 0.00 in
09:20 88.3 °F 80.6 °F 30.11 in Calm   2.0 mph 78 % 0.00 in
09:25 88.7 °F 80.2 °F 30.11 in Calm   2.0 mph 76 % 0.00 in
09:30 88.3 °F 79.3 °F 30.11 in East 2.0 mph 4.0 mph 75 % 0.00 in
09:35 88.2 °F 80.1 °F 30.11 in Calm   4.0 mph 77 % 0.00 in
09:40 88.7 °F 80.6 °F 30.11 in Calm   4.0 mph 77 % 0.00 in
09:45 88.3 °F 79.3 °F 30.11 in Calm   4.0 mph 75 % 0.00 in
09:50 87.8 °F 79.3 °F 30.11 in Calm   4.0 mph 76 % 0.00 in
09:55 88.0 °F 79.9 °F 30.11 in Calm   4.0 mph 77 % 0.00 in
10:00 88.3 °F 79.3 °F 30.11 in SE 3.0 mph 3.0 mph 75 % 0.00 in
10:05 88.2 °F 79.2 °F 30.11 in SE 2.0 mph 5.0 mph 75 % 0.00 in
10:10 88.0 °F 78.6 °F 30.11 in Calm   5.0 mph 74 % 0.00 in
10:15 88.2 °F 79.2 °F 30.11 in ESE 1.0 mph 5.0 mph 75 % 0.00 in
10:20 88.3 °F 79.9 °F 30.11 in SSW 2.0 mph 3.0 mph 76 % 0.00 in
10:25 88.9 °F 78.6 °F 30.11 in South 3.0 mph 5.0 mph 72 % 0.00 in
10:30 89.1 °F 78.4 °F 30.11 in Calm   5.0 mph 71 % 0.00 in
10:35 89.2 °F 78.6 °F 30.11 in South 2.0 mph 5.0 mph 71 % 0.00 in
10:40 89.1 °F 78.1 °F 30.11 in Calm   4.0 mph 70 % 0.00 in
10:45 89.2 °F 78.6 °F 30.11 in South 2.0 mph 4.0 mph 71 % 0.00 in
10:50 89.1 °F 78.1 °F 30.11 in ESE 1.0 mph 4.0 mph 70 % 0.00 in
10:55 88.9 °F 78.3 °F 30.11 in Calm   4.0 mph 71 % 0.00 in
11:00 88.9 °F 77.4 °F 30.11 in South 3.0 mph 4.0 mph 69 % 0.00 in
11:05 88.9 °F 77.9 °F 30.11 in SE 1.0 mph 4.0 mph 70 % 0.00 in
11:10 89.2 °F 77.7 °F 30.11 in NW 1.0 mph 5.0 mph 69 % 0.00 in
11:15 90.0 °F 78.4 °F 30.11 in SSE 3.0 mph 5.0 mph 69 % 0.00 in
11:20 90.7 °F 78.3 °F 30.11 in NW 1.0 mph 5.0 mph 67 % 0.00 in
11:25 91.2 °F 78.3 °F 30.10 in Calm   4.0 mph 66 % 0.00 in
11:30 91.6 °F 78.6 °F 30.11 in South 1.0 mph 3.0 mph 66 % 0.00 in
11:35 91.2 °F 78.3 °F 30.10 in SSW 1.0 mph 4.0 mph 66 % 0.00 in
11:40 91.8 °F 78.3 °F 30.10 in SE 1.0 mph 4.0 mph 65 % 0.00 in
11:45 91.6 °F 79.0 °F 30.10 in SSW 4.0 mph 4.0 mph 67 % 0.00 in
11:50 91.2 °F 78.3 °F 30.10 in SE 1.0 mph 4.0 mph 66 % 0.00 in
11:55 91.6 °F 78.6 °F 30.10 in Calm   4.0 mph 66 % 0.00 in
12:00 92.5 °F 79.9 °F 30.10 in East 1.0 mph 4.0 mph 67 % 0.00 in
12:05 92.8 °F 78.8 °F 30.09 in SSE 3.0 mph 3.0 mph 64 % 0.00 in
12:10 92.8 °F 78.8 °F 30.10 in NE 3.0 mph 5.0 mph 64 % 0.00 in
12:15 93.0 °F 78.6 °F 30.09 in Calm   5.0 mph 63 % 0.00 in
12:20 93.7 °F 79.7 °F 30.09 in Calm   5.0 mph 64 % 0.00 in
12:25 94.3 °F 77.7 °F 30.09 in Calm   4.0 mph 59 % 0.00 in
12:30 93.7 °F 78.8 °F 30.09 in SW 3.0 mph 8.0 mph 62 % 0.00 in
12:35 93.9 °F 78.4 °F 30.09 in NW 1.0 mph 8.0 mph 61 % 0.00 in
12:40 93.6 °F 78.1 °F 30.09 in SSE 2.0 mph 8.0 mph 61 % 0.00 in
12:45 93.6 °F 78.6 °F 30.09 in Calm   5.0 mph 62 % 0.00 in
12:50 93.9 °F 77.4 °F 30.09 in ESE 1.0 mph 6.0 mph 59 % 0.00 in
12:55 93.9 °F 79.0 °F 30.09 in SE 1.0 mph 6.0 mph 62 % 0.00 in
13:00 93.4 °F 77.9 °F 30.09 in East 1.0 mph 6.0 mph 61 % 0.00 in
13:05 93.4 °F 77.9 °F 30.09 in East 3.0 mph 5.0 mph 61 % 0.00 in
13:10 92.8 °F 77.4 °F 30.08 in SW 5.0 mph 6.0 mph 61 % 0.00 in
13:15 93.4 °F 79.3 °F 30.08 in South 3.0 mph 6.0 mph 64 % 0.00 in
13:21 93.9 °F 79.0 °F 30.08 in ESE 4.0 mph 6.0 mph 62 % 0.00 in
13:26 93.9 °F 78.4 °F 30.08 in North 1.0 mph 10.0 mph 61 % 0.00 in
13:31 93.2 °F 77.7 °F 30.07 in Calm   10.0 mph 61 % 0.00 in
13:36 93.0 °F 78.6 °F 30.07 in East 4.0 mph 10.0 mph 63 % 0.00 in
13:41 93.2 °F 79.7 °F 30.07 in ESE 4.0 mph 9.0 mph 65 % 0.00 in
13:46 93.0 °F 79.0 °F 30.07 in East 5.0 mph 10.0 mph 64 % 0.00 in
13:51 92.7 °F 79.2 °F 30.06 in ENE 6.0 mph 10.0 mph 65 % 0.00 in
13:56 92.1 °F 78.3 °F 30.06 in SE 3.0 mph 10.0 mph 64 % 0.00 in
14:01 92.7 °F 78.6 °F 30.06 in East 1.0 mph 10.0 mph 64 % 0.00 in
14:06 93.0 °F 79.0 °F 30.06 in SSE 2.0 mph 10.0 mph 64 % 0.00 in
14:11 93.0 °F 77.5 °F 30.06 in Calm   8.0 mph 61 % 0.00 in
14:16 93.0 °F 78.6 °F 30.06 in ESE 4.0 mph 7.0 mph 63 % 0.00 in
14:21 92.7 °F 77.2 °F 30.06 in SE 2.0 mph 7.0 mph 61 % 0.00 in
14:26 91.9 °F 76.6 °F 30.06 in SE 5.0 mph 9.0 mph 61 % 0.00 in
14:31 91.6 °F 76.3 °F 30.06 in SE 2.0 mph 9.0 mph 61 % 0.00 in
14:36 91.0 °F 77.2 °F 30.06 in SE 6.0 mph 11.0 mph 64 % 0.00 in
14:41 90.0 °F 77.0 °F 30.06 in SSW 4.0 mph 11.0 mph 66 % 0.00 in
14:46 89.2 °F 77.4 °F 30.05 in SSE 5.0 mph 11.0 mph 68 % 0.00 in
14:51 88.9 °F 77.0 °F 30.06 in Calm   11.0 mph 68 % 0.00 in
14:56 88.9 °F 76.5 °F 30.05 in SE 5.0 mph 11.0 mph 67 % 0.00 in
15:01 88.7 °F 74.5 °F 30.05 in SE 7.0 mph 11.0 mph 63 % 0.00 in
15:06 88.9 °F 77.4 °F 30.05 in South 3.0 mph 10.0 mph 69 % 0.00 in
15:11 88.9 °F 77.4 °F 30.05 in SSE 3.0 mph 10.0 mph 69 % 0.00 in
15:16 88.5 °F 77.0 °F 30.05 in SSE 4.0 mph 10.0 mph 69 % 0.00 in
15:21 88.0 °F 77.4 °F 30.06 in SE 5.0 mph 9.0 mph 71 % 0.00 in
15:26 87.3 °F 77.2 °F 30.05 in SE 2.0 mph 9.0 mph 72 % 0.00 in
15:31 86.7 °F 77.0 °F 30.05 in SW 3.0 mph 9.0 mph 73 % 0.00 in
15:36 86.2 °F 76.5 °F 30.05 in SW 4.0 mph 8.0 mph 73 % 0.00 in
15:41 85.8 °F 76.1 °F 30.05 in SW 1.0 mph 7.0 mph 73 % 0.00 in
15:46 85.3 °F 76.1 °F 30.05 in SE 4.0 mph 7.0 mph 74 % 0.00 in
15:51 85.3 °F 76.5 °F 30.05 in South 2.0 mph 7.0 mph 75 % 0.00 in
15:56 85.3 °F 76.5 °F 30.05 in SSW 2.0 mph 7.0 mph 75 % 0.00 in
16:01 85.1 °F 76.3 °F 30.04 in SE 4.0 mph 6.0 mph 75 % 0.00 in
16:06 84.9 °F 76.1 °F 30.05 in SSW 2.0 mph 6.0 mph 75 % 0.00 in
16:11 84.9 °F 76.1 °F 30.05 in SE 3.0 mph 6.0 mph 75 % 0.00 in
16:16 84.9 °F 75.7 °F 30.05 in Calm   6.0 mph 74 % 0.00 in
16:21 84.7 °F 75.6 °F 30.04 in SSE 2.0 mph 6.0 mph 74 % 0.00 in
16:27 84.9 °F 75.7 °F 30.04 in Calm   4.0 mph 74 % 0.00 in
16:32 84.9 °F 75.2 °F 30.04 in SSW 1.0 mph 4.0 mph 73 % 0.00 in
16:36 84.9 °F 74.5 °F 30.04 in Calm   4.0 mph 71 % 0.00 in
16:38 84.9 °F 74.8 °F 30.04 in South 2.0 mph 4.0 mph 72 % 0.00 in
16:43 84.9 °F 74.1 °F 30.04 in South 4.0 mph 4.0 mph 70 % 0.00 in
16:48 84.9 °F 74.1 °F 30.04 in SSW 2.0 mph 4.0 mph 70 % 0.00 in
16:53 84.9 °F 74.5 °F 30.04 in SSW 2.0 mph 4.0 mph 71 % 0.00 in
16:58 84.9 °F 74.1 °F 30.04 in SSE 2.0 mph 4.0 mph 70 % 0.00 in
17:03 84.9 °F 74.5 °F 30.04 in SSE 3.0 mph 5.0 mph 71 % 0.00 in
17:08 84.9 °F 74.5 °F 30.03 in SE 2.0 mph 5.0 mph 71 % 0.00 in
17:13 84.9 °F 74.8 °F 30.03 in SE 2.0 mph 5.0 mph 72 % 0.00 in
17:18 85.3 °F 75.2 °F 30.03 in SSE 1.0 mph 5.0 mph 72 % 0.00 in
17:23 85.3 °F 75.2 °F 30.03 in SE 1.0 mph 5.0 mph 72 % 0.00 in
17:24 85.3 °F 75.2 °F 30.03 in SE 1.0 mph 5.0 mph 72 % 0.00 in
17:29 85.5 °F 75.7 °F 30.03 in ESE 3.0 mph 4.0 mph 73 % 0.00 in
17:35 85.5 °F 75.7 °F 30.03 in SE 2.0 mph 4.0 mph 73 % 0.00 in
17:40 85.6 °F 75.6 °F 30.03 in SE 2.0 mph 3.0 mph 72 % 0.00 in
17:45 85.6 °F 75.6 °F 30.03 in SE 1.0 mph 4.0 mph 72 % 0.00 in
17:50 85.8 °F 76.1 °F 30.02 in SE 1.0 mph 4.0 mph 73 % 0.00 in
17:55 86.2 °F 76.5 °F 30.02 in Calm   4.0 mph 73 % 0.00 in
18:00 86.4 °F 76.6 °F 30.03 in Calm   4.0 mph 73 % 0.00 in
18:05 86.5 °F 76.5 °F 30.02 in ESE 1.0 mph 3.0 mph 72 % 0.00 in
18:10 86.7 °F 77.0 °F 30.02 in ESE 2.0 mph 3.0 mph 73 % 0.00 in
18:15 86.7 °F 76.6 °F 30.02 in ESE 2.0 mph 3.0 mph 72 % 0.00 in
18:20 86.9 °F 77.2 °F 30.02 in Calm   3.0 mph 73 % 0.00 in
18:25 87.1 °F 77.0 °F 30.02 in Calm   3.0 mph 72 % 0.00 in
18:30 87.3 °F 77.2 °F 30.02 in ESE 1.0 mph 3.0 mph 72 % 0.00 in
18:35 87.4 °F 77.4 °F 30.03 in Calm   3.0 mph 72 % 0.00 in
18:40 87.6 °F 77.0 °F 30.03 in ENE 3.0 mph 3.0 mph 71 % 0.00 in
18:45 87.6 °F 77.0 °F 30.03 in ESE 1.0 mph 4.0 mph 71 % 0.00 in
18:50 87.8 °F 77.7 °F 30.02 in SSE 2.0 mph 4.0 mph 72 % 0.00 in
18:55 88.2 °F 77.5 °F 30.02 in SE 1.0 mph 4.0 mph 71 % 0.00 in
19:00 88.3 °F 77.7 °F 30.02 in SE 1.0 mph 3.0 mph 71 % 0.00 in
19:05 88.5 °F 77.5 °F 30.02 in SE 2.0 mph 2.0 mph 70 % 0.00 in
19:10 88.9 °F 78.3 °F 30.02 in Calm   5.0 mph 71 % 0.00 in
19:11 88.9 °F 77.9 °F 30.02 in ESE 1.0 mph 5.0 mph 70 % 0.00 in
19:16 89.1 °F 77.5 °F 30.03 in SE 2.0 mph 5.0 mph 69 % 0.00 in
19:21 88.9 °F 77.4 °F 30.03 in ESE 3.0 mph 6.0 mph 69 % 0.00 in
19:26 88.7 °F 77.7 °F 30.02 in SE 5.0 mph 6.0 mph 70 % 0.00 in
19:31 88.5 °F 77.5 °F 30.03 in East 2.0 mph 7.0 mph 70 % 0.00 in
19:36 88.3 °F 78.1 °F 30.03 in SE 2.0 mph 7.0 mph 72 % 0.00 in
19:41 88.2 °F 78.4 °F 30.03 in South 4.0 mph 8.0 mph 73 % 0.00 in
19:46 87.8 °F 78.1 °F 30.03 in ESE 2.0 mph 8.0 mph 73 % 0.00 in
19:51 87.4 °F 78.1 °F 30.03 in ESE 3.0 mph 8.0 mph 74 % 0.00 in
19:56 87.1 °F 78.3 °F 30.03 in SE 1.0 mph 7.0 mph 75 % 0.00 in
20:01 86.7 °F 77.9 °F 30.03 in ESE 3.0 mph 7.0 mph 75 % 0.00 in
20:06 86.4 °F 77.5 °F 30.03 in East 3.0 mph 8.0 mph 75 % 0.00 in
20:12 86.2 °F 77.7 °F 30.03 in SE 1.0 mph 8.0 mph 76 % 0.00 in
20:17 86.2 °F 77.7 °F 30.04 in South 4.0 mph 8.0 mph 76 % 0.00 in
20:22 85.8 °F 77.7 °F 30.04 in SE 3.0 mph 6.0 mph 77 % 0.00 in
20:27 85.6 °F 77.5 °F 30.04 in SE 3.0 mph 6.0 mph 77 % 0.00 in
20:32 85.5 °F 77.4 °F 30.04 in ESE 3.0 mph 6.0 mph 77 % 0.00 in
20:37 85.3 °F 76.8 °F 30.04 in SE 1.0 mph 6.0 mph 76 % 0.00 in
20:42 85.1 °F 76.3 °F 30.04 in SE 2.0 mph 4.0 mph 75 % 0.00 in
20:47 84.9 °F 75.7 °F 30.04 in ESE 2.0 mph 5.0 mph 74 % 0.00 in
20:52 84.9 °F 75.2 °F 30.04 in ESE 3.0 mph 6.0 mph 73 % 0.00 in
20:57 84.7 °F 75.2 °F 30.04 in ENE 1.0 mph 6.0 mph 73 % 0.00 in
21:02 84.6 °F 75.0 °F 30.04 in ESE 2.0 mph 6.0 mph 73 % 0.00 in
21:07 84.6 °F 75.0 °F 30.03 in SE 1.0 mph 4.0 mph 73 % 0.00 in
21:12 84.4 °F 75.2 °F 30.03 in Calm   3.0 mph 74 % 0.00 in
21:17 84.2 °F 75.0 °F 30.04 in Calm   4.0 mph 74 % 0.00 in
21:22 84.0 °F 74.8 °F 30.03 in ESE 1.0 mph 4.0 mph 74 % 0.00 in
21:27 83.8 °F 74.7 °F 30.04 in Calm   4.0 mph 74 % 0.00 in
21:32 83.7 °F 74.5 °F 30.04 in Calm   3.0 mph 74 % 0.00 in
21:37 83.7 °F 74.8 °F 30.04 in East 1.0 mph 3.0 mph 75 % 0.00 in
21:42 83.5 °F 74.7 °F 30.04 in Calm   2.0 mph 75 % 0.00 in
21:47 83.3 °F 75.0 °F 30.05 in East 1.0 mph 2.0 mph 76 % 0.00 in
21:52 83.1 °F 74.8 °F 30.05 in Calm   2.0 mph 76 % 0.00 in
21:57 83.1 °F 75.2 °F 30.05 in Calm   2.0 mph 77 % 0.00 in
22:02 82.9 °F 75.0 °F 30.05 in Calm   2.0 mph 77 % 0.00 in
22:07 82.8 °F 75.2 °F 30.05 in Calm   1.0 mph 78 % 0.00 in
22:12 82.4 °F 75.2 °F 30.05 in Calm   1.0 mph 79 % 0.00 in
22:17 82.2 °F 75.0 °F 30.05 in Calm   2.0 mph 79 % 0.00 in
22:22 82.0 °F 75.2 °F 30.05 in Calm   2.0 mph 80 % 0.00 in
22:27 81.9 °F 75.0 °F 30.06 in Calm   2.0 mph 80 % 0.00 in
22:32 81.5 °F 75.0 °F 30.06 in South 1.0 mph 1.0 mph 81 % 0.00 in
22:37 81.3 °F 75.4 °F 30.06 in Calm   1.0 mph 82 % 0.00 in
22:42 81.3 °F 75.4 °F 30.06 in Calm   1.0 mph 82 % 0.00 in
22:47 81.3 °F 75.7 °F 30.06 in Calm   1.0 mph 83 % 0.00 in
22:52 81.3 °F 75.7 °F 30.06 in Calm     83 % 0.00 in
22:57 81.1 °F 75.6 °F 30.06 in Calm   1.0 mph 83 % 0.00 in
23:02 81.0 °F 75.4 °F 30.07 in Calm   1.0 mph 83 % 0.00 in
23:07 80.8 °F 75.2 °F 30.07 in Calm   1.0 mph 83 % 0.00 in
23:12 80.6 °F 75.4 °F 30.07 in Calm     84 % 0.00 in
23:17 80.4 °F 75.6 °F 30.07 in Calm     85 % 0.00 in
23:22 80.6 °F 76.1 °F 30.07 in Calm   1.0 mph 86 % 0.00 in
23:27 80.6 °F 76.1 °F 30.07 in South 1.0 mph 1.0 mph 86 % 0.00 in
23:32 80.6 °F 76.3 °F 30.07 in South 1.0 mph 1.0 mph 87 % 0.00 in
23:37 80.4 °F 76.1 °F 30.07 in Calm   2.0 mph 87 % 0.00 in
23:42 80.4 °F 76.1 °F 30.07 in Calm   2.0 mph 87 % 0.00 in
23:47 80.4 °F 76.1 °F 30.07 in Calm   2.0 mph 87 % 0.00 in
23:52 80.2 °F 76.1 °F 30.07 in Calm   2.0 mph 87 % 0.00 in
23:57 80.1 °F 76.1 °F 30.07 in Calm   2.0 mph 88 % 0.00 in
Spring, Texas: Villages of Bridgestone
Compliments of Weather Underground - 3.25 mb

Script developed by  Jim McMurry - jmcmurry@mwt.net Adapted for the template by  Wim van der Kuil - Leuven-Template.eu

You find our weather info also at:

UK Metoffice

WeatherCloud

Weather Underground

Mid-South Weather Network

AWEKAS

Citizen Weather Observer Program (CWOP)

HAMweather, WeatherForYou, PWS Weather

Equipment we use:

Weather-station
Davis Vantage Vue

Weather-program
Meteohub

Weather-server
Debian 7.9 x86 (Guest)

Provider
DreamHost

Davis Vantage Vue

Meteohub

Debian 7.9 x86 (Guest)

DreamHost